Time,TemperatureF,DewpointF,PressureIn,WindDirection,WindDirectionDegrees,WindSpeedMPH,WindSpeedGustMPH,Humidity,HourlyPrecipIn,Conditions,Clouds,dailyrainin,SoftwareType,DateUTC
2013-02-28 00:00:00,34.0,32.5,29.66,NW,317,0.0,4.0,94,0.00,,---,0.00,VWS V14.00,2013-02-28 05:00:00,
2013-02-28 00:05:00,33.9,32.4,29.66,South,189,0.0,0.0,94,0.00,,---,0.00,VWS V14.00,2013-02-28 05:05:00,
2013-02-28 00:10:00,33.9,32.4,29.67,South,189,0.0,1.0,94,0.00,,---,0.00,VWS V14.00,2013-02-28 05:10:00,
2013-02-28 00:15:00,33.8,32.3,29.67,WNW,292,1.0,1.0,94,0.00,,---,0.00,VWS V14.00,2013-02-28 05:15:00,
2013-02-28 00:20:00,33.7,32.2,29.66,SW,224,1.0,2.0,94,0.00,,---,0.00,VWS V14.00,2013-02-28 05:20:00,
2013-02-28 00:25:00,33.6,32.1,29.66,SSW,207,2.0,6.0,94,0.00,,---,0.00,VWS V14.00,2013-02-28 05:25:00,
2013-02-28 00:30:00,33.6,32.1,29.66,ESE,119,4.0,4.0,94,0.00,,---,0.00,VWS V14.00,2013-02-28 05:30:00,
2013-02-28 00:35:00,33.5,32.0,29.67,South,171,0.0,5.0,94,0.00,,---,0.00,VWS V14.00,2013-02-28 05:35:00,
2013-02-28 00:40:00,33.5,32.0,29.66,South,175,0.0,2.0,94,0.00,,---,0.00,VWS V14.00,2013-02-28 05:40:00,
2013-02-28 00:45:00,33.5,32.0,29.67,WNW,285,0.0,3.0,94,0.00,,---,0.00,VWS V14.00,2013-02-28 05:45:00,
2013-02-28 00:50:00,33.5,32.0,29.66,West,275,0.0,0.0,94,0.00,,---,0.00,VWS V14.00,2013-02-28 05:50:00,
2013-02-28 00:55:00,33.4,31.9,29.67,South,174,2.0,2.0,94,0.00,,---,0.01,VWS V14.00,2013-02-28 05:55:00,
2013-02-28 01:00:00,33.4,31.9,29.67,West,281,5.0,5.0,94,0.00,,---,0.01,VWS V14.00,2013-02-28 06:00:00,
2013-02-28 01:05:00,33.3,31.8,29.66,South,179,0.0,3.0,94,0.00,,---,0.01,VWS V14.00,2013-02-28 06:05:00,
2013-02-28 01:10:00,33.2,31.7,29.67,SW,221,1.0,5.0,94,0.00,,---,0.01,VWS V14.00,2013-02-28 06:10:00,
2013-02-28 01:15:00,33.1,31.3,29.66,WNW,302,0.0,2.0,93,0.00,,---,0.01,VWS V14.00,2013-02-28 06:15:00,
2013-02-28 01:20:00,33.0,31.5,29.66,WNW,302,0.0,1.0,94,0.00,,---,0.01,VWS V14.00,2013-02-28 06:20:00,
2013-02-28 01:25:00,33.0,31.5,29.67,SW,225,0.0,2.0,94,0.00,,---,0.01,VWS V14.00,2013-02-28 06:25:00,
2013-02-28 01:30:00,32.9,31.4,29.67,South,191,0.0,2.0,94,0.00,,---,0.01,VWS V14.00,2013-02-28 06:30:00,
2013-02-28 01:35:00,32.9,31.4,29.67,SSW,192,0.0,1.0,94,0.00,,---,0.01,VWS V14.00,2013-02-28 06:35:00,
2013-02-28 01:40:00,32.9,31.4,29.67,SSW,192,0.0,0.0,94,0.00,,---,0.01,VWS V14.00,2013-02-28 06:40:00,
2013-02-28 01:45:00,32.9,31.4,29.67,SSW,200,1.0,1.0,94,0.00,,---,0.01,VWS V14.00,2013-02-28 06:45:00,
2013-02-28 01:50:00,32.8,31.3,29.67,North,360,0.0,1.0,94,0.00,,---,0.01,VWS V14.00,2013-02-28 06:50:00,
2013-02-28 01:55:00,32.8,31.3,29.67,West,259,1.0,3.0,94,0.00,,---,0.01,VWS V14.00,2013-02-28 06:55:00,
2013-02-28 02:00:00,32.8,31.3,29.66,West,275,0.0,0.0,94,0.00,,---,0.01,VWS V14.00,2013-02-28 07:00:00,
2013-02-28 02:05:00,32.8,31.3,29.66,South,186,0.0,1.0,94,0.00,,---,0.01,VWS V14.00,2013-02-28 07:05:00,
2013-02-28 02:10:00,32.8,31.3,29.66,SSW,213,0.0,1.0,94,0.00,,---,0.01,VWS V14.00,2013-02-28 07:10:00,
2013-02-28 02:15:00,32.8,31.3,29.66,South,188,0.0,0.0,94,0.00,,---,0.01,VWS V14.00,2013-02-28 07:15:00,
2013-02-28 02:20:00,32.8,31.3,29.66,South,173,0.0,0.0,94,0.00,,---,0.01,VWS V14.00,2013-02-28 07:20:00,
2013-02-28 02:25:00,32.8,31.3,29.66,SSW,192,0.0,2.0,94,0.00,,---,0.01,VWS V14.00,2013-02-28 07:25:00,
2013-02-28 02:30:00,32.8,31.3,29.65,SSW,192,1.0,6.0,94,0.00,,---,0.01,VWS V14.00,2013-02-28 07:30:00,
2013-02-28 02:35:00,32.7,31.2,29.66,SSE,162,0.0,0.0,94,0.00,,---,0.01,VWS V14.00,2013-02-28 07:35:00,
2013-02-28 02:40:00,32.7,31.2,29.65,WNW,296,0.0,2.0,94,0.00,,---,0.01,VWS V14.00,2013-02-28 07:40:00,
2013-02-28 02:45:00,32.7,31.2,29.65,South,186,0.0,0.0,94,0.00,,---,0.01,VWS V14.00,2013-02-28 07:45:00,
2013-02-28 02:50:00,32.8,31.3,29.65,South,186,0.0,0.0,94,0.00,,---,0.01,VWS V14.00,2013-02-28 07:50:00,
2013-02-28 02:55:00,32.8,31.3,29.65,WSW,242,0.0,1.0,94,0.00,,---,0.01,VWS V14.00,2013-02-28 07:55:00,
2013-02-28 03:00:00,32.8,31.3,29.65,SSW,210,0.0,3.0,94,0.00,,---,0.01,VWS V14.00,2013-02-28 08:00:00,
2013-02-28 03:05:00,32.8,31.3,29.65,SSW,199,0.0,0.0,94,0.00,,---,0.01,VWS V14.00,2013-02-28 08:05:00,
2013-02-28 03:10:00,32.8,31.3,29.65,WSW,249,0.0,3.0,94,0.00,,---,0.01,VWS V14.00,2013-02-28 08:10:00,
2013-02-28 03:15:00,32.8,31.3,29.65,South,190,0.0,1.0,94,0.00,,---,0.01,VWS V14.00,2013-02-28 08:15:00,
2013-02-28 03:20:00,32.8,31.3,29.65,SSE,166,0.0,0.0,94,0.00,,---,0.01,VWS V14.00,2013-02-28 08:20:00,
2013-02-28 03:25:00,32.8,31.3,29.64,WNW,300,3.0,3.0,94,0.00,,---,0.01,VWS V14.00,2013-02-28 08:25:00,
2013-02-28 03:30:00,32.8,31.3,29.64,South,169,5.0,7.0,94,0.00,,---,0.01,VWS V14.00,2013-02-28 08:30:00,
2013-02-28 03:35:00,32.8,31.3,29.65,SSW,208,0.0,5.0,94,0.00,,---,0.01,VWS V14.00,2013-02-28 08:35:00,
2013-02-28 03:40:00,32.9,31.4,29.64,SW,226,0.0,0.0,94,0.00,,---,0.01,VWS V14.00,2013-02-28 08:40:00,
2013-02-28 03:45:00,32.9,31.1,29.64,WNW,285,0.0,0.0,93,0.00,,---,0.01,VWS V14.00,2013-02-28 08:45:00,
2013-02-28 03:50:00,32.9,31.1,29.64,South,186,0.0,1.0,93,0.00,,---,0.01,VWS V14.00,2013-02-28 08:50:00,
2013-02-28 03:55:00,32.9,31.4,29.64,SW,234,0.0,0.0,94,0.00,,---,0.01,VWS V14.00,2013-02-28 08:55:00,
2013-02-28 04:00:00,32.9,31.1,29.64,SW,215,0.0,0.0,93,0.00,,---,0.01,VWS V14.00,2013-02-28 09:00:00,
2013-02-28 04:05:00,32.9,31.1,29.64,SSW,200,0.0,3.0,93,0.00,,---,0.01,VWS V14.00,2013-02-28 09:05:00,
2013-02-28 04:10:00,32.9,31.1,29.64,SSW,192,0.0,1.0,93,0.00,,---,0.01,VWS V14.00,2013-02-28 09:10:00,
2013-02-28 04:15:00,33.0,31.2,29.64,SSW,202,0.0,1.0,93,0.00,,---,0.01,VWS V14.00,2013-02-28 09:15:00,
2013-02-28 04:20:00,33.0,31.2,29.64,SW,233,0.0,1.0,93,0.00,,---,0.01,VWS V14.00,2013-02-28 09:20:00,
2013-02-28 04:25:00,32.9,31.1,29.64,SW,233,0.0,0.0,93,0.00,,---,0.01,VWS V14.00,2013-02-28 09:25:00,
2013-02-28 04:30:00,33.0,31.2,29.64,SW,233,0.0,1.0,93,0.00,,---,0.01,VWS V14.00,2013-02-28 09:30:00,
2013-02-28 04:35:00,33.0,31.2,29.64,SSE,161,0.0,3.0,93,0.00,,---,0.01,VWS V14.00,2013-02-28 09:35:00,
2013-02-28 04:40:00,32.9,31.1,29.64,SSE,158,1.0,3.0,93,0.00,,---,0.01,VWS V14.00,2013-02-28 09:40:00,
2013-02-28 04:45:00,33.0,31.2,29.64,SSE,165,0.0,2.0,93,0.00,,---,0.01,VWS V14.00,2013-02-28 09:45:00,
2013-02-28 04:50:00,33.0,31.2,29.64,South,178,0.0,3.0,93,0.00,,---,0.01,VWS V14.00,2013-02-28 09:50:00,
2013-02-28 04:55:00,33.0,31.2,29.64,SSE,165,2.0,5.0,93,0.00,,---,0.01,VWS V14.00,2013-02-28 09:55:00,
2013-02-28 05:00:00,32.9,31.1,29.64,SW,216,0.0,2.0,93,0.00,,---,0.01,VWS V14.00,2013-02-28 10:00:00,
2013-02-28 05:05:00,33.0,31.2,29.64,SSW,209,0.0,1.0,93,0.00,,---,0.01,VWS V14.00,2013-02-28 10:05:00,
2013-02-28 05:10:00,33.0,31.2,29.64,SSW,197,4.0,4.0,93,0.00,,---,0.01,VWS V14.00,2013-02-28 10:10:00,
2013-02-28 05:15:00,33.0,31.2,29.64,SSE,151,0.0,2.0,93,0.00,,---,0.01,VWS V14.00,2013-02-28 10:15:00,
2013-02-28 05:20:00,33.0,31.2,29.64,SSE,150,0.0,0.0,93,0.00,,---,0.01,VWS V14.00,2013-02-28 10:20:00,
2013-02-28 05:25:00,33.0,31.2,29.64,South,189,0.0,1.0,93,0.00,,---,0.01,VWS V14.00,2013-02-28 10:25:00,
2013-02-28 05:30:00,33.0,30.9,29.64,SW,223,0.0,2.0,92,0.00,,---,0.01,VWS V14.00,2013-02-28 10:30:00,
2013-02-28 05:35:00,33.0,30.9,29.64,SSW,207,0.0,2.0,92,0.00,,---,0.01,VWS V14.00,2013-02-28 10:35:00,
2013-02-28 05:40:00,33.0,30.9,29.64,SSW,202,1.0,2.0,92,0.00,,---,0.01,VWS V14.00,2013-02-28 10:40:00,
2013-02-28 05:45:00,33.0,30.9,29.64,SSW,202,0.0,3.0,92,0.00,,---,0.01,VWS V14.00,2013-02-28 10:45:00,
2013-02-28 05:50:00,33.0,30.9,29.64,South,175,0.0,2.0,92,0.00,,---,0.01,VWS V14.00,2013-02-28 10:50:00,
2013-02-28 05:55:00,33.0,30.9,29.64,SSE,161,1.0,3.0,92,0.00,,---,0.01,VWS V14.00,2013-02-28 10:55:00,
2013-02-28 06:00:00,33.0,30.9,29.64,SW,220,0.0,0.0,92,0.00,,---,0.01,VWS V14.00,2013-02-28 11:00:00,
2013-02-28 06:05:00,33.0,30.9,29.64,South,170,3.0,6.0,92,0.00,,---,0.01,VWS V14.00,2013-02-28 11:05:00,
2013-02-28 06:10:00,33.0,30.9,29.64,South,185,0.0,3.0,92,0.00,,---,0.01,VWS V14.00,2013-02-28 11:10:00,
2013-02-28 06:15:00,33.0,30.9,29.64,SSW,193,0.0,2.0,92,0.00,,---,0.01,VWS V14.00,2013-02-28 11:15:00,
2013-02-28 06:20:00,33.0,30.9,29.64,NW,316,0.0,1.0,92,0.00,,---,0.01,VWS V14.00,2013-02-28 11:20:00,
2013-02-28 06:25:00,33.0,30.9,29.64,SW,215,0.0,3.0,92,0.00,,---,0.01,VWS V14.00,2013-02-28 11:25:00,
2013-02-28 06:30:00,33.0,30.9,29.64,SW,215,0.0,3.0,92,0.00,,---,0.01,VWS V14.00,2013-02-28 11:30:00,
2013-02-28 06:35:00,33.0,30.9,29.64,South,174,0.0,2.0,92,0.00,,---,0.01,VWS V14.00,2013-02-28 11:35:00,
2013-02-28 06:40:00,33.0,30.9,29.64,SW,227,1.0,1.0,92,0.00,,---,0.01,VWS V14.00,2013-02-28 11:40:00,
2013-02-28 06:45:00,33.0,30.9,29.64,SSW,202,0.0,0.0,92,0.00,,---,0.01,VWS V14.00,2013-02-28 11:45:00,
2013-02-28 06:50:00,33.0,30.7,29.64,WSW,253,0.0,2.0,91,0.00,,---,0.01,VWS V14.00,2013-02-28 11:50:00,
2013-02-28 06:55:00,32.9,30.6,29.64,SSW,206,0.0,1.0,91,0.00,,---,0.01,VWS V14.00,2013-02-28 11:55:00,
2013-02-28 07:00:00,32.9,30.6,29.64,NW,318,0.0,3.0,91,0.00,,---,0.01,VWS V14.00,2013-02-28 12:00:00,
2013-02-28 07:05:00,32.9,30.6,29.64,SSW,209,1.0,3.0,91,0.00,,---,0.01,VWS V14.00,2013-02-28 12:05:00,
2013-02-28 07:10:00,32.8,30.5,29.64,North,5,4.0,11.0,91,0.00,,---,0.01,VWS V14.00,2013-02-28 12:10:00,
2013-02-28 07:15:00,32.8,30.5,29.65,SW,216,3.0,4.0,91,0.00,,---,0.01,VWS V14.00,2013-02-28 12:15:00,
2013-02-28 07:20:00,32.8,30.5,29.65,SSW,209,0.0,3.0,91,0.00,,---,0.01,VWS V14.00,2013-02-28 12:20:00,
2013-02-28 07:25:00,32.8,30.5,29.65,SE,134,0.0,2.0,91,0.00,,---,0.01,VWS V14.00,2013-02-28 12:25:00,
2013-02-28 07:30:00,32.8,30.2,29.64,South,186,0.0,2.0,90,0.00,,---,0.01,VWS V14.00,2013-02-28 12:30:00,
2013-02-28 07:35:00,32.8,30.2,29.64,South,191,0.0,3.0,90,0.00,,---,0.01,VWS V14.00,2013-02-28 12:35:00,
2013-02-28 07:40:00,32.7,30.1,29.64,SSW,211,0.0,0.0,90,0.00,,---,0.01,VWS V14.00,2013-02-28 12:40:00,
2013-02-28 07:45:00,32.8,30.2,29.65,WNW,295,2.0,2.0,90,0.00,,---,0.01,VWS V14.00,2013-02-28 12:45:00,
2013-02-28 07:50:00,32.8,30.2,29.65,WSW,249,1.0,6.0,90,0.00,,---,0.01,VWS V14.00,2013-02-28 12:50:00,
2013-02-28 07:55:00,32.7,30.1,29.65,SSW,198,0.0,3.0,90,0.00,,---,0.01,VWS V14.00,2013-02-28 12:55:00,
2013-02-28 08:00:00,32.8,30.2,29.65,West,277,0.0,3.0,90,0.00,,---,0.01,VWS V14.00,2013-02-28 13:00:00,
2013-02-28 08:05:00,32.8,30.2,29.65,SW,218,1.0,3.0,90,0.00,,---,0.01,VWS V14.00,2013-02-28 13:05:00,
2013-02-28 08:10:00,32.8,30.2,29.66,SSW,197,3.0,3.0,90,0.00,,---,0.01,VWS V14.00,2013-02-28 13:10:00,
2013-02-28 08:15:00,32.8,30.2,29.66,SSW,193,0.0,0.0,90,0.00,,---,0.01,VWS V14.00,2013-02-28 13:15:00,
2013-02-28 08:20:00,32.8,30.2,29.66,West,281,0.0,3.0,90,0.00,,---,0.01,VWS V14.00,2013-02-28 13:20:00,
2013-02-28 08:25:00,32.8,30.2,29.66,West,275,0.0,2.0,90,0.00,,---,0.01,VWS V14.00,2013-02-28 13:25:00,
2013-02-28 08:30:00,32.8,30.2,29.66,West,271,0.0,0.0,90,0.00,,---,0.01,VWS V14.00,2013-02-28 13:30:00,
2013-02-28 08:35:00,32.8,30.2,29.66,West,271,0.0,0.0,90,0.00,,---,0.01,VWS V14.00,2013-02-28 13:35:00,
2013-02-28 08:40:00,32.8,30.2,29.67,West,281,0.0,2.0,90,0.00,,---,0.01,VWS V14.00,2013-02-28 13:40:00,
2013-02-28 08:45:00,32.8,30.2,29.67,SSW,197,0.0,0.0,90,0.00,,---,0.01,VWS V14.00,2013-02-28 13:45:00,
2013-02-28 08:50:00,32.9,30.3,29.66,SSW,208,1.0,2.0,90,0.00,,---,0.01,VWS V14.00,2013-02-28 13:50:00,
2013-02-28 08:55:00,32.9,30.3,29.66,SSE,167,0.0,2.0,90,0.00,,---,0.01,VWS V14.00,2013-02-28 13:55:00,
2013-02-28 09:00:00,32.9,30.3,29.66,West,264,0.0,5.0,90,0.00,,---,0.01,VWS V14.00,2013-02-28 14:00:00,
2013-02-28 09:05:00,32.9,30.3,29.66,SW,236,0.0,4.0,90,0.00,,---,0.01,VWS V14.00,2013-02-28 14:05:00,
2013-02-28 09:10:00,32.9,30.3,29.66,SSW,196,2.0,4.0,90,0.00,,---,0.01,VWS V14.00,2013-02-28 14:10:00,
2013-02-28 09:15:00,32.9,30.3,29.66,South,181,0.0,2.0,90,0.00,,---,0.01,VWS V14.00,2013-02-28 14:15:00,
2013-02-28 09:20:00,32.9,30.3,29.66,SSE,157,0.0,1.0,90,0.00,,---,0.01,VWS V14.00,2013-02-28 14:20:00,
2013-02-28 09:25:00,32.9,30.3,29.66,NW,321,0.0,3.0,90,0.00,,---,0.01,VWS V14.00,2013-02-28 14:25:00,
2013-02-28 09:30:00,32.9,30.3,29.66,SSW,200,1.0,3.0,90,0.00,,---,0.01,VWS V14.00,2013-02-28 14:30:00,
2013-02-28 09:35:00,32.9,30.3,29.66,SW,229,2.0,2.0,90,0.00,,---,0.01,VWS V14.00,2013-02-28 14:35:00,
2013-02-28 09:40:00,33.0,30.4,29.66,WSW,255,2.0,3.0,90,0.00,,---,0.01,VWS V14.00,2013-02-28 14:40:00,
2013-02-28 09:45:00,33.0,30.4,29.66,SW,223,1.0,2.0,90,0.00,,---,0.02,VWS V14.00,2013-02-28 14:45:00,
2013-02-28 09:50:00,33.0,30.4,29.66,South,169,0.0,3.0,90,0.00,,---,0.02,VWS V14.00,2013-02-28 14:50:00,
2013-02-28 09:55:00,33.0,30.4,29.66,SSW,192,1.0,3.0,90,0.00,,---,0.02,VWS V14.00,2013-02-28 14:55:00,
2013-02-28 10:00:00,33.0,30.4,29.67,SSE,168,0.0,3.0,90,0.00,,---,0.02,VWS V14.00,2013-02-28 15:00:00,
2013-02-28 10:05:00,33.0,30.4,29.66,South,185,2.0,9.0,90,0.00,,---,0.02,VWS V14.00,2013-02-28 15:05:00,
2013-02-28 10:10:00,33.1,30.5,29.66,SSW,203,1.0,2.0,90,0.00,,---,0.02,VWS V14.00,2013-02-28 15:10:00,
2013-02-28 10:15:00,33.1,30.5,29.67,SSW,200,0.0,4.0,90,0.00,,---,0.02,VWS V14.00,2013-02-28 15:15:00,
2013-02-28 10:20:00,33.1,30.5,29.67,SW,235,1.0,4.0,90,0.00,,---,0.02,VWS V14.00,2013-02-28 15:20:00,
2013-02-28 10:25:00,33.1,30.5,29.67,SE,141,0.0,3.0,90,0.00,,---,0.02,VWS V14.00,2013-02-28 15:25:00,
2013-02-28 10:30:00,33.1,30.5,29.67,SSW,195,2.0,2.0,90,0.00,,---,0.02,VWS V14.00,2013-02-28 15:30:00,
2013-02-28 10:35:00,33.2,30.6,29.67,SSE,166,0.0,2.0,90,0.00,,---,0.02,VWS V14.00,2013-02-28 15:35:00,
2013-02-28 10:40:00,33.2,30.6,29.67,SE,144,2.0,2.0,90,0.00,,---,0.02,VWS V14.00,2013-02-28 15:40:00,
2013-02-28 10:45:00,33.2,30.6,29.67,SW,220,0.0,3.0,90,0.00,,---,0.02,VWS V14.00,2013-02-28 15:45:00,
2013-02-28 10:50:00,33.2,30.6,29.67,South,181,0.0,3.0,90,0.00,,---,0.02,VWS V14.00,2013-02-28 15:50:00,
2013-02-28 10:55:00,33.2,30.6,29.67,South,187,0.0,4.0,90,0.00,,---,0.02,VWS V14.00,2013-02-28 15:55:00,
2013-02-28 11:00:00,33.2,30.6,29.68,SSE,165,1.0,3.0,90,0.00,,---,0.02,VWS V14.00,2013-02-28 16:00:00,
2013-02-28 11:05:00,33.2,30.6,29.68,SSE,148,2.0,4.0,90,0.00,,---,0.02,VWS V14.00,2013-02-28 16:05:00,
2013-02-28 11:10:00,33.2,30.6,29.68,South,175,0.0,1.0,90,0.00,,---,0.02,VWS V14.00,2013-02-28 16:10:00,
2013-02-28 11:15:00,33.3,30.7,29.68,SSW,203,0.0,6.0,90,0.00,,---,0.02,VWS V14.00,2013-02-28 16:15:00,
2013-02-28 11:20:00,33.3,30.7,29.68,SW,235,0.0,2.0,90,0.00,,---,0.03,VWS V14.00,2013-02-28 16:20:00,
2013-02-28 11:25:00,33.4,30.8,29.68,South,183,0.0,3.0,90,0.00,,---,0.03,VWS V14.00,2013-02-28 16:25:00,
2013-02-28 11:30:00,33.5,30.9,29.68,South,170,1.0,3.0,90,0.00,,---,0.03,VWS V14.00,2013-02-28 16:30:00,
2013-02-28 11:35:00,33.5,30.9,29.68,NNW,328,0.0,1.0,90,0.00,,---,0.03,VWS V14.00,2013-02-28 16:35:00,
2013-02-28 11:40:00,33.7,31.1,29.68,SW,236,0.0,2.0,90,0.00,,---,0.03,VWS V14.00,2013-02-28 16:40:00,
2013-02-28 11:45:00,33.9,31.6,29.67,SW,222,0.0,3.0,91,0.00,,---,0.03,VWS V14.00,2013-02-28 16:45:00,
2013-02-28 11:50:00,34.0,31.6,29.68,SW,215,0.0,2.0,91,0.00,,---,0.03,VWS V14.00,2013-02-28 16:50:00,
2013-02-28 11:56:00,34.3,32.0,29.68,WNW,300,0.0,2.0,91,0.00,,---,0.03,VWS V14.00,2013-02-28 16:56:00,
2013-02-28 12:01:00,34.6,32.2,29.68,South,189,2.0,4.0,91,0.00,,---,0.03,VWS V14.00,2013-02-28 17:01:00,
2013-02-28 12:06:00,34.7,32.3,29.67,WSW,257,3.0,4.0,91,0.00,,---,0.03,VWS V14.00,2013-02-28 17:06:00,
2013-02-28 12:11:00,34.8,32.5,29.67,SW,217,4.0,6.0,91,0.00,,---,0.03,VWS V14.00,2013-02-28 17:11:00,
2013-02-28 12:16:00,34.7,32.3,29.67,South,188,2.0,3.0,91,0.00,,---,0.03,VWS V14.00,2013-02-28 17:16:00,
2013-02-28 12:21:00,34.7,32.3,29.67,SSW,200,0.0,4.0,91,0.00,,---,0.03,VWS V14.00,2013-02-28 17:21:00,
2013-02-28 12:26:00,34.7,32.3,29.67,South,190,2.0,6.0,91,0.00,,---,0.03,VWS V14.00,2013-02-28 17:26:00,
2013-02-28 12:31:00,34.7,32.3,29.67,SSW,194,0.0,3.0,91,0.00,,---,0.03,VWS V14.00,2013-02-28 17:31:00,
2013-02-28 12:36:00,34.9,32.5,29.67,SSE,160,0.0,4.0,91,0.00,,---,0.03,VWS V14.00,2013-02-28 17:36:00,
2013-02-28 12:41:00,35.0,32.9,29.67,WSW,240,0.0,3.0,92,0.00,,---,0.03,VWS V14.00,2013-02-28 17:41:00,
2013-02-28 12:46:00,35.1,33.0,29.67,SW,230,0.0,6.0,92,0.00,,---,0.03,VWS V14.00,2013-02-28 17:46:00,
2013-02-28 12:51:00,35.0,32.6,29.67,SSW,213,0.0,4.0,91,0.00,,---,0.03,VWS V14.00,2013-02-28 17:51:00,
2013-02-28 12:56:00,35.0,32.6,29.67,SSW,194,2.0,3.0,91,0.00,,---,0.03,VWS V14.00,2013-02-28 17:56:00,
2013-02-28 13:01:00,35.0,32.6,29.67,SSE,157,0.0,4.0,91,0.00,,---,0.03,VWS V14.00,2013-02-28 18:01:00,
2013-02-28 13:06:00,34.9,32.5,29.67,South,186,0.0,2.0,91,0.00,,---,0.03,VWS V14.00,2013-02-28 18:06:00,
2013-02-28 13:11:00,34.9,32.5,29.67,South,185,0.0,4.0,91,0.00,,---,0.03,VWS V14.00,2013-02-28 18:11:00,
2013-02-28 13:16:00,34.9,32.5,29.67,WNW,295,2.0,2.0,91,0.00,,---,0.03,VWS V14.00,2013-02-28 18:16:00,
2013-02-28 13:21:00,34.9,32.5,29.67,South,189,0.0,4.0,91,0.00,,---,0.03,VWS V14.00,2013-02-28 18:21:00,
2013-02-28 13:26:00,34.8,32.5,29.67,SSW,213,1.0,2.0,91,0.00,,---,0.03,VWS V14.00,2013-02-28 18:26:00,
2013-02-28 13:31:00,34.8,32.5,29.67,South,191,0.0,3.0,91,0.00,,---,0.04,VWS V14.00,2013-02-28 18:31:00,
2013-02-28 13:36:00,34.8,32.5,29.67,SSW,202,0.0,1.0,91,0.00,,---,0.04,VWS V14.00,2013-02-28 18:36:00,
2013-02-28 13:41:00,34.8,32.7,29.66,South,180,0.0,3.0,92,0.00,,---,0.04,VWS V14.00,2013-02-28 18:41:00,
2013-02-28 13:46:00,34.8,32.7,29.67,SW,232,0.0,3.0,92,0.00,,---,0.04,VWS V14.00,2013-02-28 18:46:00,
2013-02-28 13:51:00,34.8,32.5,29.67,South,184,0.0,5.0,91,0.00,,---,0.04,VWS V14.00,2013-02-28 18:51:00,
2013-02-28 13:56:00,34.8,32.7,29.67,SSW,192,1.0,5.0,92,0.00,,---,0.04,VWS V14.00,2013-02-28 18:56:00,
2013-02-28 14:01:00,34.8,32.7,29.67,SSW,209,3.0,4.0,92,0.00,,---,0.04,VWS V14.00,2013-02-28 19:01:00,
2013-02-28 14:06:00,34.8,32.7,29.67,South,183,3.0,3.0,92,0.00,,---,0.04,VWS V14.00,2013-02-28 19:06:00,
2013-02-28 14:11:00,34.9,32.8,29.67,WNW,288,0.0,4.0,92,0.00,,---,0.04,VWS V14.00,2013-02-28 19:11:00,
2013-02-28 14:16:00,34.9,32.8,29.67,SSE,165,2.0,4.0,92,0.00,,---,0.04,VWS V14.00,2013-02-28 19:16:00,
2013-02-28 14:21:00,34.9,32.8,29.67,South,181,2.0,2.0,92,0.00,,---,0.04,VWS V14.00,2013-02-28 19:21:00,
2013-02-28 14:26:00,35.0,32.9,29.67,SSW,194,0.0,5.0,92,0.00,,---,0.04,VWS V14.00,2013-02-28 19:26:00,
2013-02-28 14:31:00,35.0,32.9,29.67,SW,225,0.0,2.0,92,0.00,,---,0.04,VWS V14.00,2013-02-28 19:31:00,
2013-02-28 14:36:00,35.1,33.0,29.67,SSW,200,0.0,3.0,92,0.00,,---,0.04,VWS V14.00,2013-02-28 19:36:00,
2013-02-28 14:41:00,35.1,33.0,29.67,SW,220,1.0,3.0,92,0.00,,---,0.04,VWS V14.00,2013-02-28 19:41:00,
2013-02-28 14:46:00,35.1,33.0,29.67,South,173,2.0,3.0,92,0.00,,---,0.04,VWS V14.00,2013-02-28 19:46:00,
2013-02-28 14:51:00,35.1,33.0,29.67,SW,219,0.0,3.0,92,0.00,,---,0.04,VWS V14.00,2013-02-28 19:51:00,
2013-02-28 14:56:00,35.1,33.0,29.67,West,263,1.0,4.0,92,0.00,,---,0.04,VWS V14.00,2013-02-28 19:56:00,
2013-02-28 15:01:00,35.1,33.0,29.67,NW,305,0.0,4.0,92,0.00,,---,0.04,VWS V14.00,2013-02-28 20:01:00,
2013-02-28 15:06:00,35.1,33.0,29.67,West,267,0.0,2.0,92,0.00,,---,0.04,VWS V14.00,2013-02-28 20:06:00,
2013-02-28 15:11:00,35.1,33.0,29.67,SSW,192,1.0,4.0,92,0.00,,---,0.04,VWS V14.00,2013-02-28 20:11:00,
2013-02-28 15:16:00,35.0,32.9,29.68,SW,235,0.0,1.0,92,0.00,,---,0.04,VWS V14.00,2013-02-28 20:16:00,
2013-02-28 15:21:00,34.9,32.8,29.68,WNW,291,3.0,9.0,92,0.00,,---,0.04,VWS V14.00,2013-02-28 20:21:00,
2013-02-28 15:26:00,34.8,32.7,29.68,WSW,244,0.0,1.0,92,0.00,,---,0.04,VWS V14.00,2013-02-28 20:26:00,
2013-02-28 15:31:00,34.6,32.5,29.68,SW,216,0.0,4.0,92,0.00,,---,0.04,VWS V14.00,2013-02-28 20:31:00,
2013-02-28 15:36:00,34.6,32.5,29.68,SSW,198,0.0,4.0,92,0.00,,---,0.04,VWS V14.00,2013-02-28 20:36:00,
2013-02-28 15:41:00,34.5,32.4,29.68,SSW,200,2.0,3.0,92,0.00,,---,0.05,VWS V14.00,2013-02-28 20:41:00,
2013-02-28 15:46:00,34.4,32.3,29.68,WNW,285,3.0,4.0,92,0.00,,---,0.05,VWS V14.00,2013-02-28 20:46:00,
2013-02-28 15:51:00,34.4,32.3,29.69,SSW,211,3.0,4.0,92,0.00,,---,0.05,VWS V14.00,2013-02-28 20:51:00,
2013-02-28 15:56:00,34.3,32.2,29.69,SW,229,0.0,6.0,92,0.00,,---,0.05,VWS V14.00,2013-02-28 20:56:00,
2013-02-28 16:01:00,34.3,32.2,29.69,SW,223,1.0,2.0,92,0.00,,---,0.05,VWS V14.00,2013-02-28 21:01:00,
2013-02-28 16:06:00,34.3,32.2,29.69,South,184,0.0,2.0,92,0.00,,---,0.05,VWS V14.00,2013-02-28 21:06:00,
2013-02-28 16:11:00,34.4,32.3,29.69,South,176,0.0,2.0,92,0.00,,---,0.05,VWS V14.00,2013-02-28 21:11:00,
2013-02-28 16:16:00,34.3,32.2,29.69,SSW,206,0.0,4.0,92,0.00,,---,0.05,VWS V14.00,2013-02-28 21:16:00,
2013-02-28 16:21:00,34.4,32.6,29.69,WSW,237,1.0,2.0,93,0.00,,---,0.05,VWS V14.00,2013-02-28 21:21:00,
2013-02-28 16:26:00,34.3,32.5,29.69,East,86,1.0,2.0,93,0.00,,---,0.05,VWS V14.00,2013-02-28 21:26:00,
2013-02-28 16:31:00,34.3,32.5,29.70,East,80,0.0,1.0,93,0.00,,---,0.05,VWS V14.00,2013-02-28 21:31:00,
2013-02-28 16:36:00,34.3,32.5,29.69,WNW,287,1.0,5.0,93,0.00,,---,0.05,VWS V14.00,2013-02-28 21:36:00,
2013-02-28 16:41:00,34.3,32.5,29.69,SE,140,0.0,3.0,93,0.00,,---,0.05,VWS V14.00,2013-02-28 21:41:00,
2013-02-28 16:46:00,34.3,32.5,29.69,NW,304,0.0,3.0,93,0.00,,---,0.05,VWS V14.00,2013-02-28 21:46:00,
2013-02-28 16:51:00,34.3,32.5,29.69,West,260,0.0,2.0,93,0.00,,---,0.05,VWS V14.00,2013-02-28 21:51:00,
2013-02-28 16:56:00,34.3,32.5,29.70,SSW,213,0.0,2.0,93,0.00,,---,0.05,VWS V14.00,2013-02-28 21:56:00,
2013-02-28 17:01:00,34.3,32.5,29.70,WSW,249,0.0,2.0,93,0.00,,---,0.05,VWS V14.00,2013-02-28 22:01:00,
2013-02-28 17:06:00,34.3,32.5,29.70,WSW,245,2.0,2.0,93,0.00,,---,0.05,VWS V14.00,2013-02-28 22:06:00,
2013-02-28 17:11:00,34.3,32.5,29.70,WSW,245,0.0,0.0,93,0.00,,---,0.05,VWS V14.00,2013-02-28 22:11:00,
2013-02-28 17:16:00,34.3,32.5,29.71,SW,235,5.0,5.0,93,0.00,,---,0.05,VWS V14.00,2013-02-28 22:16:00,
2013-02-28 17:21:00,34.4,32.6,29.71,SSW,206,0.0,3.0,93,0.00,,---,0.05,VWS V14.00,2013-02-28 22:21:00,
2013-02-28 17:26:00,34.4,32.6,29.71,WSW,258,0.0,2.0,93,0.00,,---,0.05,VWS V14.00,2013-02-28 22:26:00,
2013-02-28 17:31:00,34.4,32.6,29.72,SW,227,2.0,4.0,93,0.00,,---,0.05,VWS V14.00,2013-02-28 22:31:00,
2013-02-28 17:36:00,34.5,32.7,29.71,SW,223,0.0,4.0,93,0.00,,---,0.05,VWS V14.00,2013-02-28 22:36:00,
2013-02-28 17:41:00,34.5,32.7,29.72,WSW,245,1.0,1.0,93,0.00,,---,0.05,VWS V14.00,2013-02-28 22:41:00,
2013-02-28 17:46:00,34.5,32.7,29.72,WSW,247,0.0,4.0,93,0.00,,---,0.05,VWS V14.00,2013-02-28 22:46:00,
2013-02-28 17:51:00,34.6,32.8,29.73,West,271,0.0,6.0,93,0.00,,---,0.05,VWS V14.00,2013-02-28 22:51:00,
2013-02-28 17:56:00,34.6,32.8,29.73,West,281,0.0,5.0,93,0.00,,---,0.05,VWS V14.00,2013-02-28 22:56:00,
2013-02-28 18:01:00,34.6,32.8,29.73,West,269,0.0,3.0,93,0.00,,---,0.05,VWS V14.00,2013-02-28 23:01:00,
2013-02-28 18:06:00,34.6,32.8,29.73,WNW,285,0.0,2.0,93,0.00,,---,0.05,VWS V14.00,2013-02-28 23:06:00,
2013-02-28 18:11:00,34.6,32.8,29.74,West,268,2.0,4.0,93,0.00,,---,0.05,VWS V14.00,2013-02-28 23:11:00,
2013-02-28 18:16:00,34.7,32.9,29.74,West,276,1.0,5.0,93,0.00,,---,0.05,VWS V14.00,2013-02-28 23:16:00,
2013-02-28 18:21:00,34.7,32.9,29.74,West,262,0.0,2.0,93,0.00,,---,0.05,VWS V14.00,2013-02-28 23:21:00,
2013-02-28 18:26:00,34.7,32.9,29.75,WSW,250,0.0,2.0,93,0.00,,---,0.05,VWS V14.00,2013-02-28 23:26:00,
2013-02-28 18:31:00,34.7,32.9,29.75,WNW,286,0.0,2.0,93,0.00,,---,0.05,VWS V14.00,2013-02-28 23:31:00,
2013-02-28 18:36:00,34.7,32.9,29.76,South,175,1.0,2.0,93,0.00,,---,0.05,VWS V14.00,2013-02-28 23:36:00,
2013-02-28 18:41:00,34.7,32.9,29.76,SW,229,3.0,4.0,93,0.00,,---,0.05,VWS V14.00,2013-02-28 23:41:00,
2013-02-28 18:46:00,34.7,32.9,29.76,SW,224,0.0,2.0,93,0.00,,---,0.05,VWS V14.00,2013-02-28 23:46:00,
2013-02-28 18:51:00,34.7,32.9,29.76,SSW,213,0.0,2.0,93,0.00,,---,0.05,VWS V14.00,2013-02-28 23:51:00,
2013-02-28 18:56:00,34.7,32.9,29.76,WNW,300,0.0,5.0,93,0.00,,---,0.05,VWS V14.00,2013-02-28 23:56:00,
2013-02-28 19:01:00,34.7,32.9,29.76,West,264,1.0,6.0,93,0.00,,---,0.05,VWS V14.00,2013-03-01 00:01:00,
2013-02-28 19:06:00,34.7,32.9,29.77,SSW,213,1.0,4.0,93,0.00,,---,0.05,VWS V14.00,2013-03-01 00:06:00,
2013-02-28 19:11:00,34.7,32.9,29.77,SW,227,0.0,4.0,93,0.00,,---,0.05,VWS V14.00,2013-03-01 00:11:00,
2013-02-28 19:16:00,34.6,32.8,29.78,West,277,3.0,4.0,93,0.00,,---,0.05,VWS V14.00,2013-03-01 00:16:00,
2013-02-28 19:21:00,34.6,32.8,29.78,SW,223,0.0,3.0,93,0.00,,---,0.05,VWS V14.00,2013-03-01 00:21:00,
2013-02-28 19:26:00,34.5,32.7,29.78,West,264,1.0,3.0,93,0.00,,---,0.05,VWS V14.00,2013-03-01 00:26:00,
2013-02-28 19:31:00,34.4,32.6,29.79,SW,225,0.0,4.0,93,0.00,,---,0.05,VWS V14.00,2013-03-01 00:31:00,
2013-02-28 19:36:00,34.4,32.6,29.79,SW,229,0.0,3.0,93,0.00,,---,0.05,VWS V14.00,2013-03-01 00:36:00,
2013-02-28 19:41:00,34.3,32.5,29.79,SSW,200,1.0,2.0,93,0.00,,---,0.05,VWS V14.00,2013-03-01 00:41:00,
2013-02-28 19:46:00,34.3,32.5,29.79,West,263,0.0,5.0,93,0.00,,---,0.05,VWS V14.00,2013-03-01 00:46:00,
2013-02-28 19:51:00,34.2,32.4,29.79,SW,222,1.0,3.0,93,0.00,,---,0.05,VWS V14.00,2013-03-01 00:51:00,
2013-02-28 19:56:00,34.2,32.4,29.79,SSW,202,0.0,5.0,93,0.00,,---,0.05,VWS V14.00,2013-03-01 00:56:00,
2013-02-28 20:01:00,34.1,32.3,29.80,NW,306,1.0,4.0,93,0.00,,---,0.05,VWS V14.00,2013-03-01 01:01:00,
2013-02-28 20:06:00,34.1,32.3,29.80,West,268,2.0,3.0,93,0.00,,---,0.05,VWS V14.00,2013-03-01 01:06:00,
2013-02-28 20:11:00,34.0,32.2,29.80,WSW,244,0.0,6.0,93,0.00,,---,0.05,VWS V14.00,2013-03-01 01:11:00,
2013-02-28 20:16:00,34.0,32.2,29.80,WSW,237,0.0,3.0,93,0.00,,---,0.05,VWS V14.00,2013-03-01 01:16:00,
2013-02-28 20:21:00,34.0,32.2,29.80,West,270,1.0,4.0,93,0.00,,---,0.05,VWS V14.00,2013-03-01 01:21:00,
2013-02-28 20:26:00,33.9,32.1,29.80,West,269,0.0,2.0,93,0.00,,---,0.05,VWS V14.00,2013-03-01 01:26:00,
2013-02-28 20:31:00,33.9,32.1,29.81,SW,225,0.0,5.0,93,0.00,,---,0.05,VWS V14.00,2013-03-01 01:31:00,
2013-02-28 20:36:00,33.9,32.1,29.81,WSW,239,0.0,2.0,93,0.00,,---,0.05,VWS V14.00,2013-03-01 01:36:00,
2013-02-28 20:41:00,33.9,32.1,29.81,SW,235,0.0,3.0,93,0.00,,---,0.05,VWS V14.00,2013-03-01 01:41:00,
2013-02-28 20:46:00,33.9,32.1,29.81,SW,231,0.0,4.0,93,0.00,,---,0.05,VWS V14.00,2013-03-01 01:46:00,
2013-02-28 20:51:00,33.9,32.1,29.81,WSW,257,1.0,3.0,93,0.00,,---,0.05,VWS V14.00,2013-03-01 01:51:00,
2013-02-28 20:56:00,33.9,32.1,29.81,NW,306,0.0,3.0,93,0.00,,---,0.05,VWS V14.00,2013-03-01 01:56:00,
2013-02-28 21:01:00,33.9,32.1,29.82,NW,305,0.0,0.0,93,0.00,,---,0.05,VWS V14.00,2013-03-01 02:01:00,
2013-02-28 21:06:00,33.9,32.1,29.82,WSW,242,0.0,4.0,93,0.00,,---,0.05,VWS V14.00,2013-03-01 02:06:00,
2013-02-28 21:11:00,33.9,32.1,29.82,WNW,285,0.0,8.0,93,0.00,,---,0.05,VWS V14.00,2013-03-01 02:11:00,
2013-02-28 21:16:00,33.8,32.0,29.82,WNW,297,0.0,3.0,93,0.00,,---,0.05,VWS V14.00,2013-03-01 02:16:00,
2013-02-28 21:21:00,33.8,32.0,29.82,WSW,239,1.0,3.0,93,0.00,,---,0.05,VWS V14.00,2013-03-01 02:21:00,
2013-02-28 21:26:00,33.8,32.0,29.82,WSW,249,0.0,1.0,93,0.00,,---,0.05,VWS V14.00,2013-03-01 02:26:00,
2013-02-28 21:31:00,33.8,32.0,29.82,West,280,0.0,3.0,93,0.00,,---,0.05,VWS V14.00,2013-03-01 02:31:00,
2013-02-28 21:36:00,33.8,32.0,29.82,SSW,205,0.0,4.0,93,0.00,,---,0.05,VWS V14.00,2013-03-01 02:36:00,
2013-02-28 21:41:00,33.7,31.9,29.83,West,259,3.0,4.0,93,0.00,,---,0.05,VWS V14.00,2013-03-01 02:41:00,
2013-02-28 21:46:00,33.7,31.9,29.83,SW,223,0.0,1.0,93,0.00,,---,0.05,VWS V14.00,2013-03-01 02:46:00,
2013-02-28 21:51:00,33.7,31.9,29.82,South,184,0.0,4.0,93,0.00,,---,0.05,VWS V14.00,2013-03-01 02:51:00,
2013-02-28 21:56:00,33.7,31.9,29.82,WSW,244,1.0,3.0,93,0.00,,---,0.05,VWS V14.00,2013-03-01 02:56:00,
2013-02-28 22:01:00,33.7,31.9,29.82,WSW,246,2.0,2.0,93,0.00,,---,0.05,VWS V14.00,2013-03-01 03:01:00,
2013-02-28 22:06:00,33.6,31.8,29.83,WSW,246,0.0,2.0,93,0.00,,---,0.05,VWS V14.00,2013-03-01 03:06:00,
2013-02-28 22:11:00,33.6,31.8,29.83,SW,230,0.0,2.0,93,0.00,,---,0.05,VWS V14.00,2013-03-01 03:11:00,
2013-02-28 22:16:00,33.6,31.8,29.83,WNW,290,1.0,3.0,93,0.00,,---,0.05,VWS V14.00,2013-03-01 03:16:00,
2013-02-28 22:21:00,33.5,31.7,29.83,WNW,290,0.0,2.0,93,0.00,,---,0.05,VWS V14.00,2013-03-01 03:21:00,
2013-02-28 22:26:00,33.5,31.7,29.82,WNW,290,1.0,1.0,93,0.00,,---,0.05,VWS V14.00,2013-03-01 03:26:00,
2013-02-28 22:31:00,33.5,31.7,29.82,WSW,246,0.0,1.0,93,0.00,,---,0.05,VWS V14.00,2013-03-01 03:31:00,
2013-02-28 22:36:00,33.5,31.7,29.83,West,266,0.0,3.0,93,0.00,,---,0.05,VWS V14.00,2013-03-01 03:36:00,
2013-02-28 22:41:00,33.5,31.7,29.83,West,266,0.0,2.0,93,0.00,,---,0.05,VWS V14.00,2013-03-01 03:41:00,
2013-02-28 22:46:00,33.5,31.7,29.83,West,279,0.0,5.0,93,0.00,,---,0.05,VWS V14.00,2013-03-01 03:46:00,
2013-02-28 22:51:00,33.5,31.7,29.83,SW,236,3.0,5.0,93,0.00,,---,0.05,VWS V14.00,2013-03-01 03:51:00,
2013-02-28 22:56:00,33.4,31.6,29.83,SW,229,2.0,7.0,93,0.00,,---,0.05,VWS V14.00,2013-03-01 03:56:00,
2013-02-28 23:01:00,33.4,31.6,29.83,West,262,0.0,2.0,93,0.00,,---,0.05,VWS V14.00,2013-03-01 04:01:00,
2013-02-28 23:06:00,33.4,31.6,29.83,West,266,0.0,6.0,93,0.00,,---,0.05,VWS V14.00,2013-03-01 04:06:00,
2013-02-28 23:11:00,33.3,31.5,29.83,West,265,0.0,1.0,93,0.00,,---,0.05,VWS V14.00,2013-03-01 04:11:00,
2013-02-28 23:16:00,33.3,31.5,29.83,SW,221,0.0,5.0,93,0.00,,---,0.05,VWS V14.00,2013-03-01 04:16:00,
2013-02-28 23:21:00,33.3,31.5,29.83,West,264,0.0,2.0,93,0.00,,---,0.05,VWS V14.00,2013-03-01 04:21:00,
2013-02-28 23:26:00,33.2,31.4,29.83,West,266,0.0,3.0,93,0.00,,---,0.05,VWS V14.00,2013-03-01 04:26:00,
2013-02-28 23:31:00,33.2,31.4,29.83,WNW,300,0.0,1.0,93,0.00,,---,0.05,VWS V14.00,2013-03-01 04:31:00,
2013-02-28 23:36:00,33.2,31.4,29.83,WSW,257,0.0,3.0,93,0.00,,---,0.05,VWS V14.00,2013-03-01 04:36:00,
2013-02-28 23:41:00,33.1,31.3,29.83,WSW,238,0.0,5.0,93,0.00,,---,0.05,VWS V14.00,2013-03-01 04:41:00,
2013-02-28 23:46:00,33.0,31.2,29.83,WSW,248,1.0,10.0,93,0.00,,---,0.05,VWS V14.00,2013-03-01 04:46:00,
2013-02-28 23:51:00,32.9,31.1,29.83,WNW,286,0.0,2.0,93,0.00,,---,0.05,VWS V14.00,2013-03-01 04:51:00,
2013-02-28 23:56:00,32.8,31.0,29.83,WNW,284,0.0,2.0,93,0.00,,---,0.05,VWS V14.00,2013-03-01 04:56:00,